Aérodrome :
LOGIN :

S'inscrire | Disclaimer

   EN    FR    IT 

 










Légende :    VFR   VFR Marginal   IFR   IFR Intensif   IFR Très Intensif
Visi : 
Plafond : 
>= 8 km
>= 3000ft
5 à 8 km
1000 à 3000 ft
1500m à 5 km
500 à 1000 ft
800 à 1500m
200 à 500 ft
< 800m
< 200 ft
Symboles :   Orages  Brouillard  Fortes neiges  Fortes précipitations  Vent > 20 kt
SIGMETs :   Divers  Orages  Givrage  Turbulence  Onde Orograph.  Cendres Volcan.







- Altitude de l'aérodrome : 779 ft
- Code IATA : CMF
- Voir les cartes d'approche


LFLB - Chambery / Aix-Les-Bains

DERNIER METAR :
  • 221100Z AUTO 34011KT CAVOK 21/10 Q1017 NOSIG

METARs EXPIRÉS :
  • 221030Z AUTO 35011KT CAVOK 20/11 Q1018 NOSIG
  • 221000Z AUTO 34010KT CAVOK 20/11 Q1018 NOSIG
  • 220930Z AUTO 35009KT CAVOK 19/11 Q1018 NOSIG
  • 220900Z AUTO 01008KT CAVOK 18/11 Q1018 NOSIG
  • 220830Z AUTO 01008KT CAVOK 17/11 Q1018 NOSIG

TAF TAF LFLB
Valide du 22 à 06h jusqu'au 23 à 06h UTC


220500Z 2206/2306 36007KT CAVOK
BECMG 2303/2306 36003KT
Pas de NOTAMs connus pour ce terrain.



MET'MAP, la Météo Aéronautique d'un coup d'oeil ! - Copyright ORBIFLY Décembre 2007 - Disclaimer

ORBIFLY MET'MAP TEAM :

Programmation & Développement : Alexandra Zaïnal
Conception & Développement : Baudouin d'Aumeries
Co-Programmation & Développement : Marc-Olivier Méhu
Soutien technique & logistique : Manuel Goepfert

Contact : metmap@orbifly.com




SOURCES & CREDITS :

   NOAA